RYR63FM LEMD-GCLP

Flight info

Callsign RYR63FM
Flight time 2h 53m
Altitude 35000
Route VTB DCT INPAN DCT CRISA DCT HIJ/N0448F370 DCT SVL DCT CLANA DCT KORNO UN857 TERTO
Aircraft B738/M-SDE3FGILRWY/SB1

Departure

Time 2026-05-04 03:51
Airport Adolfo Suárez Madrid–Barajas Airport (LEMD)

Arrival

Time 2026-05-04 06:44
Airport Gran Canaria Airport (GCLP)
Time Latitude Longitude Altitude Speed Heading
2026-05-04 03:21 40.46708 -3.56799 1976 ft 0 kts 282°
2026-05-04 03:36 40.46706 -3.56787 1975 ft 3 kts 283°
2026-05-04 03:36 40.46701 -3.56762 1976 ft 3 kts 285°
2026-05-04 03:37 40.46695 -3.56736 1975 ft 3 kts 293°
2026-05-04 03:37 40.46686 -3.56714 1978 ft 3 kts 315°
2026-05-04 03:37 40.46673 -3.56703 1977 ft 2 kts 358°
2026-05-04 03:37 40.46670 -3.56703 1977 ft 1 kts
2026-05-04 03:41 40.46671 -3.56703 1977 ft 1 kts
2026-05-04 03:41 40.46689 -3.56702 1978 ft 4 kts
2026-05-04 03:41 40.46734 -3.56699 1974 ft 8 kts
2026-05-04 03:42 40.46795 -3.56677 1977 ft 10 kts 45°
2026-05-04 03:42 40.46807 -3.56585 1975 ft 11 kts 73°
2026-05-04 03:42 40.46875 -3.56554 1974 ft 11 kts
2026-05-04 03:42 40.46958 -3.56551 1977 ft 12 kts
2026-05-04 03:43 40.47047 -3.56561 1978 ft 13 kts 346°
2026-05-04 03:43 40.47133 -3.56613 1981 ft 14 kts 324°
2026-05-04 03:43 40.47208 -3.56689 1984 ft 13 kts 322°
2026-05-04 03:43 40.47280 -3.56762 1985 ft 13 kts 322°
2026-05-04 03:44 40.47350 -3.56832 1987 ft 13 kts 322°
2026-05-04 03:44 40.47419 -3.56902 1990 ft 13 kts 322°
2026-05-04 03:44 40.47499 -3.56984 1990 ft 16 kts 322°
2026-05-04 03:44 40.47597 -3.57082 1995 ft 19 kts 321°
2026-05-04 03:45 40.47705 -3.57194 1998 ft 21 kts 322°
2026-05-04 03:45 40.47827 -3.57318 2002 ft 23 kts 322°
2026-05-04 03:45 40.47961 -3.57455 2002 ft 27 kts 322°
2026-05-04 03:45 40.48119 -3.57615 1998 ft 29 kts 322°
2026-05-04 03:46 40.48273 -3.57772 1993 ft 26 kts 322°
2026-05-04 03:46 40.48415 -3.57902 1991 ft 24 kts 327°
2026-05-04 03:46 40.48535 -3.58002 2000 ft 17 kts 327°
2026-05-04 03:46 40.48647 -3.58050 2002 ft 18 kts 359°
2026-05-04 03:47 40.48779 -3.58047 2002 ft 20 kts 360°
2026-05-04 03:47 40.48853 -3.58016 2001 ft 11 kts 72°
2026-05-04 03:47 40.48858 -3.57910 1997 ft 13 kts 90°
2026-05-04 03:47 40.48858 -3.57769 1992 ft 18 kts 90°
2026-05-04 03:48 40.48866 -3.57646 1990 ft 11 kts 60°
2026-05-04 03:48 40.48935 -3.57618 1989 ft 11 kts 359°
2026-05-04 03:48 40.49009 -3.57619 1989 ft 11 kts 360°
2026-05-04 03:48 40.49084 -3.57619 1988 ft 11 kts 359°
2026-05-04 03:49 40.49153 -3.57617 1988 ft 5 kts
2026-05-04 03:49 40.49181 -3.57595 1988 ft 5 kts 51°
2026-05-04 03:49 40.49200 -3.57550 1988 ft 7 kts 65°
2026-05-04 03:49 40.49228 -3.57477 1985 ft 11 kts 52°
2026-05-04 03:50 40.49304 -3.57453 1982 ft 12 kts 359°
2026-05-04 03:50 40.49392 -3.57454 1982 ft 16 kts
2026-05-04 03:50 40.49653 -3.57454 1984 ft 70 kts 359°
2026-05-04 03:50 40.50358 -3.57461 1990 ft 133 kts 359°
2026-05-04 03:51 40.51461 -3.57480 2082 ft 177 kts 358°
2026-05-04 03:51 40.52733 -3.57514 2680 ft 188 kts 358°
2026-05-04 03:51 40.54026 -3.57554 3577 ft 185 kts 356°
2026-05-04 03:51 40.55356 -3.57477 4102 ft 206 kts
2026-05-04 03:52 40.56809 -3.56946 4396 ft 224 kts 16°
2026-05-04 03:52 40.58331 -3.56316 4799 ft 237 kts 16°
2026-05-04 03:52 40.59939 -3.55681 5268 ft 245 kts 15°
2026-05-04 03:52 40.61587 -3.55050 5854 ft 249 kts 14°
2026-05-04 03:53 40.63248 -3.54423 6496 ft 254 kts 14°
2026-05-04 03:53 40.64980 -3.54018 7252 ft 252 kts
2026-05-04 03:53 40.66738 -3.53878 8008 ft 254 kts
2026-05-04 03:53 40.68519 -3.53761 8728 ft 258 kts
2026-05-04 03:54 40.70278 -3.53211 9404 ft 267 kts 30°
2026-05-04 03:54 40.71645 -3.51462 9772 ft 286 kts 57°
2026-05-04 03:54 40.72750 -3.49213 10302 ft 296 kts 57°
2026-05-04 03:54 40.73891 -3.46926 10992 ft 300 kts 56°
2026-05-04 03:55 40.75065 -3.44627 11689 ft 304 kts 56°
2026-05-04 03:55 40.76142 -3.42250 12330 ft 309 kts 71°
2026-05-04 03:55 40.76458 -3.39473 12988 ft 308 kts 99°
2026-05-04 03:55 40.75858 -3.36808 13690 ft 303 kts 124°
2026-05-04 03:56 40.74665 -3.34533 14312 ft 302 kts 132°
2026-05-04 03:56 40.73365 -3.32340 14925 ft 306 kts 133°
2026-05-04 03:56 40.72040 -3.30115 15553 ft 309 kts 135°
2026-05-04 03:56 40.70407 -3.28368 16146 ft 300 kts 161°
2026-05-04 03:57 40.68410 -3.27631 16497 ft 303 kts 182°
2026-05-04 03:57 40.66300 -3.27810 16659 ft 317 kts 191°
2026-05-04 03:57 40.64049 -3.28195 16807 ft 336 kts 191°
2026-05-04 03:57 40.61677 -3.28628 16946 ft 354 kts 191°
2026-05-04 03:58 40.56626 -3.29531 17683 ft 373 kts 191°
2026-05-04 03:58 40.54048 -3.29974 18334 ft 374 kts 191°
2026-05-04 03:58 40.51461 -3.30413 18895 ft 376 kts 191°
2026-05-04 03:59 40.48862 -3.30851 19435 ft 378 kts 191°
2026-05-04 03:59 40.46246 -3.31291 19962 ft 380 kts 191°
2026-05-04 03:59 40.43653 -3.31727 20483 ft 382 kts 191°
2026-05-04 03:59 40.41009 -3.32170 21004 ft 384 kts 192°
2026-05-04 04:00 40.38345 -3.32618 21495 ft 387 kts 192°
2026-05-04 04:00 40.35665 -3.33067 21988 ft 389 kts 192°
2026-05-04 04:00 40.32975 -3.33518 22481 ft 391 kts 192°
2026-05-04 04:00 40.30264 -3.33972 22965 ft 394 kts 192°
2026-05-04 04:01 40.27544 -3.34427 23435 ft 396 kts 192°
2026-05-04 04:01 40.24802 -3.34896 23835 ft 397 kts 193°
2026-05-04 04:01 40.22113 -3.35483 24250 ft 397 kts 195°
2026-05-04 04:01 40.19393 -3.36162 24645 ft 398 kts 196°
2026-05-04 04:02 40.16667 -3.36867 25037 ft 400 kts 196°
2026-05-04 04:02 40.13939 -3.37571 25405 ft 401 kts 196°
2026-05-04 04:02 40.11192 -3.38269 25788 ft 402 kts 196°
2026-05-04 04:02 40.08437 -3.38958 26164 ft 404 kts 196°
2026-05-04 04:03 40.05678 -3.39642 26528 ft 405 kts 196°
2026-05-04 04:03 40.02903 -3.40326 26872 ft 406 kts 196°
2026-05-04 04:03 40.00123 -3.41009 27193 ft 408 kts 196°
2026-05-04 04:03 39.97328 -3.41695 27534 ft 409 kts 197°
2026-05-04 04:04 39.94566 -3.42372 27861 ft 410 kts 197°
2026-05-04 04:04 39.91753 -3.43062 28179 ft 412 kts 197°
2026-05-04 04:04 39.88937 -3.43751 28494 ft 413 kts 197°
2026-05-04 04:04 39.86106 -3.44444 28792 ft 414 kts 197°
2026-05-04 04:05 39.83273 -3.45137 29145 ft 414 kts 197°
2026-05-04 04:05 39.80467 -3.45892 29606 ft 407 kts 203°
2026-05-04 04:05 39.77911 -3.47321 30062 ft 395 kts 214°
2026-05-04 04:05 39.75712 -3.49396 30424 ft 388 kts 226°
2026-05-04 04:06 39.73800 -3.51856 30737 ft 386 kts 228°
2026-05-04 04:06 39.71962 -3.54325 31005 ft 386 kts 228°
2026-05-04 04:06 39.70096 -3.56841 31310 ft 386 kts 228°
2026-05-04 04:06 39.68229 -3.59338 31604 ft 385 kts 228°
2026-05-04 04:07 39.66356 -3.61819 31935 ft 384 kts 228°
2026-05-04 04:07 39.64487 -3.64278 32278 ft 382 kts 228°
2026-05-04 04:07 39.62619 -3.66727 32582 ft 382 kts 228°
2026-05-04 04:07 39.60751 -3.69172 32856 ft 382 kts 228°
2026-05-04 04:08 39.58883 -3.71616 33129 ft 381 kts 228°
2026-05-04 04:08 39.57042 -3.74019 33438 ft 380 kts 228°
2026-05-04 04:08 39.55183 -3.76447 33748 ft 379 kts 228°
2026-05-04 04:08 39.53327 -3.78871 34007 ft 379 kts 228°
2026-05-04 04:09 39.51474 -3.81291 34206 ft 379 kts 228°
2026-05-04 04:09 39.49617 -3.83717 34392 ft 379 kts 228°
2026-05-04 04:09 39.47756 -3.86146 34554 ft 380 kts 228°
2026-05-04 04:09 39.45891 -3.88578 34702 ft 381 kts 228°
2026-05-04 04:10 39.44023 -3.91011 34906 ft 381 kts 228°
2026-05-04 04:10 39.42181 -3.93410 35103 ft 381 kts 228°
2026-05-04 04:10 39.40309 -3.95844 35258 ft 382 kts 228°
2026-05-04 04:10 39.38433 -3.98283 35423 ft 383 kts 228°
2026-05-04 04:11 39.36553 -4.00724 35609 ft 383 kts 228°
2026-05-04 04:11 39.34676 -4.03160 35808 ft 383 kts 228°
2026-05-04 04:11 39.32795 -4.05598 35965 ft 383 kts 228°
2026-05-04 04:11 39.30910 -4.08041 36081 ft 385 kts 228°
2026-05-04 04:12 39.29016 -4.10494 36229 ft 386 kts 228°
2026-05-04 04:12 39.27147 -4.12910 36411 ft 385 kts 228°
2026-05-04 04:12 39.25256 -4.15353 36559 ft 386 kts 228°
2026-05-04 04:12 39.23357 -4.17806 36715 ft 386 kts 228°
2026-05-04 04:13 39.21461 -4.20252 36905 ft 386 kts 228°
2026-05-04 04:13 39.19560 -4.22703 36957 ft 387 kts 228°
2026-05-04 04:13 39.15747 -4.27613 36961 ft 387 kts 228°
2026-05-04 04:14 39.11970 -4.32468 36963 ft 385 kts 228°
2026-05-04 04:14 39.08186 -4.37325 36967 ft 384 kts 228°
2026-05-04 04:15 39.04401 -4.42176 36974 ft 384 kts 228°
2026-05-04 04:15 39.00624 -4.47011 36974 ft 383 kts 228°
2026-05-04 04:16 38.96850 -4.51834 36988 ft 383 kts 228°
2026-05-04 04:16 38.93093 -4.56625 36980 ft 383 kts 228°
2026-05-04 04:17 38.89301 -4.61445 36984 ft 384 kts 228°
2026-05-04 04:17 38.85497 -4.66274 36983 ft 385 kts 228°
2026-05-04 04:18 38.81681 -4.71113 36988 ft 386 kts 228°
2026-05-04 04:18 38.77877 -4.75928 36990 ft 387 kts 228°
2026-05-04 04:19 38.74043 -4.80775 36995 ft 388 kts 228°
2026-05-04 04:19 38.70196 -4.85630 36990 ft 388 kts 228°
2026-05-04 04:20 38.66345 -4.90484 36999 ft 389 kts 228°
2026-05-04 04:20 38.62519 -4.95297 36993 ft 389 kts 228°
2026-05-04 04:21 38.58663 -5.00143 36997 ft 389 kts 228°
2026-05-04 04:21 38.54805 -5.04982 36996 ft 389 kts 228°
2026-05-04 04:22 38.50797 -5.09617 36996 ft 392 kts 220°
2026-05-04 04:22 38.46010 -5.13058 37007 ft 397 kts 211°
2026-05-04 04:23 38.41061 -5.16089 37007 ft 397 kts 211°
2026-05-04 04:23 38.36086 -5.19149 37000 ft 397 kts 212°
2026-05-04 04:24 38.31118 -5.22219 36999 ft 396 kts 212°
2026-05-04 04:24 38.26160 -5.25286 37005 ft 396 kts 212°
2026-05-04 04:25 38.21237 -5.28329 36999 ft 396 kts 212°
2026-05-04 04:25 38.16278 -5.31389 37001 ft 396 kts 212°
2026-05-04 04:26 38.11325 -5.34441 37011 ft 396 kts 212°
2026-05-04 04:26 38.06362 -5.37495 37011 ft 396 kts 212°
2026-05-04 04:27 38.01430 -5.40524 37014 ft 397 kts 212°
2026-05-04 04:27 37.96459 -5.43573 37008 ft 397 kts 211°
2026-05-04 04:28 37.91484 -5.46620 37007 ft 398 kts 211°
2026-05-04 04:28 37.86506 -5.49665 37011 ft 398 kts 211°
2026-05-04 04:29 37.81509 -5.52716 37010 ft 399 kts 211°
2026-05-04 04:29 37.76540 -5.55745 37007 ft 399 kts 212°
2026-05-04 04:30 37.71531 -5.58794 37009 ft 400 kts 211°
2026-05-04 04:30 37.66515 -5.61843 37002 ft 401 kts 211°
2026-05-04 04:31 37.61487 -5.64895 37011 ft 401 kts 211°
2026-05-04 04:31 37.56488 -5.67925 37012 ft 401 kts 211°
2026-05-04 04:32 37.51453 -5.70973 37025 ft 402 kts 211°
2026-05-04 04:32 37.46408 -5.74022 37016 ft 402 kts 211°
2026-05-04 04:33 37.41563 -5.77448 37014 ft 396 kts 222°
2026-05-04 04:33 37.37415 -5.81869 37012 ft 394 kts 224°
2026-05-04 04:34 37.33243 -5.86353 37023 ft 395 kts 224°
2026-05-04 04:34 37.29051 -5.90825 37020 ft 396 kts 224°
2026-05-04 04:35 37.24846 -5.95292 37017 ft 396 kts 224°
2026-05-04 04:35 37.20665 -5.99723 37020 ft 397 kts 224°
2026-05-04 04:36 37.16447 -6.04186 37012 ft 397 kts 224°
2026-05-04 04:36 37.12225 -6.08647 37017 ft 397 kts 224°
2026-05-04 04:37 37.03795 -6.17533 37016 ft 398 kts 224°
2026-05-04 04:38 36.99561 -6.21986 37019 ft 398 kts 224°
2026-05-04 04:38 36.95321 -6.26439 37015 ft 398 kts 224°
2026-05-04 04:39 36.91074 -6.30893 37016 ft 399 kts 224°
2026-05-04 04:39 36.86821 -6.35346 37020 ft 399 kts 224°
2026-05-04 04:40 36.82593 -6.39766 37022 ft 399 kts 224°
2026-05-04 04:40 36.78328 -6.44218 37018 ft 400 kts 224°
2026-05-04 04:41 36.74057 -6.48670 37020 ft 400 kts 224°
2026-05-04 04:41 36.69779 -6.53124 37018 ft 401 kts 224°
2026-05-04 04:42 36.65527 -6.57543 37020 ft 401 kts 224°
2026-05-04 04:42 36.61244 -6.61988 37020 ft 401 kts 224°
2026-05-04 04:43 36.56953 -6.66435 37033 ft 401 kts 224°
2026-05-04 04:43 36.52660 -6.70878 37026 ft 402 kts 224°
2026-05-04 04:44 36.48361 -6.75317 37047 ft 402 kts 224°
2026-05-04 04:44 36.44087 -6.79719 37042 ft 402 kts 224°
2026-05-04 04:45 36.39783 -6.84149 37044 ft 402 kts 224°
2026-05-04 04:47 36.24728 -6.99594 37052 ft 402 kts 224°
2026-05-04 04:47 36.20416 -7.04004 37048 ft 402 kts 224°
2026-05-04 04:48 36.16099 -7.08413 37061 ft 402 kts 224°
2026-05-04 04:49 36.05331 -7.19379 37062 ft 402 kts 224°
2026-05-04 04:49 36.01029 -7.23748 37058 ft 395 kts 224°
2026-05-04 04:50 35.96847 -7.27986 37050 ft 386 kts 224°
2026-05-04 04:50 35.92714 -7.32177 37062 ft 384 kts 224°
2026-05-04 04:51 35.88616 -7.36327 37059 ft 383 kts 224°
2026-05-04 04:51 35.84485 -7.40502 37065 ft 385 kts 224°
2026-05-04 04:52 35.80326 -7.44679 37073 ft 387 kts 224°
2026-05-04 04:52 35.76127 -7.48863 37071 ft 390 kts 224°
2026-05-04 04:53 35.71901 -7.53070 37070 ft 392 kts 224°
2026-05-04 04:53 35.67680 -7.57270 37069 ft 394 kts 224°
2026-05-04 04:54 35.63410 -7.61514 37073 ft 395 kts 224°
2026-05-04 04:54 35.59127 -7.65764 37069 ft 396 kts 224°
2026-05-04 04:55 35.54838 -7.70015 37072 ft 396 kts 224°
2026-05-04 04:55 35.50584 -7.74226 37071 ft 395 kts 224°
2026-05-04 04:56 35.46310 -7.78451 37070 ft 394 kts 224°
2026-05-04 04:56 35.42045 -7.82661 37070 ft 393 kts 224°
2026-05-04 04:57 35.37811 -7.86867 37071 ft 391 kts 224°
2026-05-04 04:57 35.33632 -7.91048 37073 ft 390 kts 224°
2026-05-04 04:58 35.29438 -7.95239 37075 ft 389 kts 224°
2026-05-04 04:58 35.25247 -7.99418 37073 ft 388 kts 224°
2026-05-04 04:59 35.21061 -8.03585 37074 ft 388 kts 224°
2026-05-04 04:59 35.16874 -8.07747 37078 ft 388 kts 224°
2026-05-04 05:00 35.12714 -8.11876 37077 ft 388 kts 224°
2026-05-04 05:01 35.06417 -8.18116 37073 ft 389 kts 224°
2026-05-04 05:01 35.02215 -8.22273 37072 ft 389 kts 224°
2026-05-04 05:02 34.98032 -8.26404 37077 ft 390 kts 224°
2026-05-04 05:02 34.93820 -8.30559 37080 ft 390 kts 224°
2026-05-04 05:03 34.89601 -8.34715 37080 ft 390 kts 224°
2026-05-04 05:04 34.81204 -8.42970 37084 ft 389 kts 224°
2026-05-04 05:04 34.76995 -8.47100 37084 ft 388 kts 224°
2026-05-04 05:06 34.60239 -8.63485 37089 ft 386 kts 224°
2026-05-04 05:07 34.56052 -8.67567 37085 ft 386 kts 224°
2026-05-04 05:07 34.51868 -8.71640 37085 ft 386 kts 224°
2026-05-04 05:09 34.33033 -8.89825 37088 ft 385 kts 224°
2026-05-04 05:10 34.28833 -8.93853 37085 ft 385 kts 224°
2026-05-04 05:10 34.24659 -8.97852 37090 ft 385 kts 224°
2026-05-04 05:11 34.20454 -9.01876 37088 ft 385 kts 224°
2026-05-04 05:11 34.16961 -9.05215 37086 ft 385 kts 224°
2026-05-04 05:12 34.12754 -9.09231 37085 ft 385 kts 224°
2026-05-04 05:12 34.07864 -9.13892 37088 ft 385 kts 224°
2026-05-04 05:13 34.03657 -9.17898 37085 ft 385 kts 224°
2026-05-04 05:13 34.00158 -9.21224 37094 ft 385 kts 224°
2026-05-04 05:14 33.95951 -9.25220 37084 ft 385 kts 224°
2026-05-04 05:14 33.91059 -9.29860 37087 ft 385 kts 224°
2026-05-04 05:15 33.87534 -9.33198 37091 ft 385 kts 224°
2026-05-04 05:15 33.83355 -9.37151 37088 ft 385 kts 224°
2026-05-04 05:16 33.79147 -9.41128 37089 ft 385 kts 224°
2026-05-04 05:16 33.74936 -9.45101 37089 ft 385 kts 224°
2026-05-04 05:17 33.70726 -9.49069 37092 ft 385 kts 224°
2026-05-04 05:17 33.66512 -9.53035 37088 ft 385 kts 224°
2026-05-04 05:18 33.62325 -9.56971 37088 ft 385 kts 224°
2026-05-04 05:18 33.58106 -9.60932 37089 ft 385 kts 224°
2026-05-04 05:19 33.53880 -9.64894 37092 ft 386 kts 224°
2026-05-04 05:19 33.49651 -9.68855 37088 ft 386 kts 224°
2026-05-04 05:20 33.45448 -9.72786 37092 ft 386 kts 224°
2026-05-04 05:20 33.41204 -9.76750 37088 ft 387 kts 224°
2026-05-04 05:21 33.36958 -9.80711 37096 ft 387 kts 223°
2026-05-04 05:21 33.32708 -9.84670 37089 ft 388 kts 223°
2026-05-04 05:22 33.28477 -9.88608 37087 ft 388 kts 223°
2026-05-04 05:22 33.24216 -9.92568 37095 ft 388 kts 223°
2026-05-04 05:23 33.19947 -9.96530 37090 ft 389 kts 223°
2026-05-04 05:23 33.15673 -10.00492 37089 ft 389 kts 223°
2026-05-04 05:24 33.11423 -10.04428 37092 ft 389 kts 223°
2026-05-04 05:24 33.07139 -10.08391 37092 ft 390 kts 223°
2026-05-04 05:25 33.02853 -10.12349 37091 ft 390 kts 223°
2026-05-04 05:25 32.98559 -10.16307 37088 ft 390 kts 223°
2026-05-04 05:26 32.94258 -10.20264 37092 ft 391 kts 223°
2026-05-04 05:26 32.89983 -10.24194 37087 ft 391 kts 223°
2026-05-04 05:28 32.72725 -10.40017 37093 ft 394 kts 223°
2026-05-04 05:29 32.68383 -10.43985 37092 ft 394 kts 223°
2026-05-04 05:29 32.64027 -10.47961 37094 ft 395 kts 223°
2026-05-04 05:31 32.46571 -10.63844 37092 ft 397 kts 222°
2026-05-04 05:32 32.42187 -10.67821 37089 ft 397 kts 222°
2026-05-04 05:33 32.35628 -10.73761 37092 ft 398 kts 222°
2026-05-04 05:33 32.31235 -10.77734 37090 ft 398 kts 222°
2026-05-04 05:34 32.26835 -10.81707 37094 ft 398 kts 222°
2026-05-04 05:34 32.22432 -10.85678 37092 ft 398 kts 222°
2026-05-04 05:35 32.18059 -10.89618 37089 ft 398 kts 222°
2026-05-04 05:35 32.13652 -10.93583 37092 ft 398 kts 222°
2026-05-04 05:36 32.09244 -10.97544 37086 ft 398 kts 222°
2026-05-04 05:36 32.04835 -11.01501 37092 ft 398 kts 222°
2026-05-04 05:37 32.00454 -11.05428 37090 ft 398 kts 222°
2026-05-04 05:37 31.96040 -11.09380 37086 ft 398 kts 222°
2026-05-04 05:38 31.89417 -11.15301 37088 ft 398 kts 222°
2026-05-04 05:38 31.84999 -11.19244 37089 ft 399 kts 222°
2026-05-04 05:39 31.78401 -11.25126 37088 ft 399 kts 222°
2026-05-04 05:40 31.71771 -11.31029 37088 ft 399 kts 222°
2026-05-04 05:40 31.67351 -11.34966 37089 ft 399 kts 222°
2026-05-04 05:41 31.62963 -11.38870 37086 ft 399 kts 222°
2026-05-04 05:41 31.58539 -11.42803 37091 ft 399 kts 222°
2026-05-04 05:42 31.54118 -11.46728 37090 ft 399 kts 222°
2026-05-04 05:42 31.49696 -11.50649 37098 ft 399 kts 222°
2026-05-04 05:43 31.45300 -11.54542 37085 ft 399 kts 222°
2026-05-04 05:45 31.27620 -11.70152 37090 ft 398 kts 222°
2026-05-04 05:47 31.09917 -11.85707 37087 ft 398 kts 222°
2026-05-04 05:47 31.05524 -11.89556 37084 ft 397 kts 222°
2026-05-04 05:48 31.01103 -11.93424 37087 ft 397 kts 222°
2026-05-04 05:48 30.96683 -11.97287 37088 ft 397 kts 222°
2026-05-04 05:49 30.92264 -12.01144 37088 ft 397 kts 222°
2026-05-04 05:49 30.87849 -12.04994 37090 ft 396 kts 222°
2026-05-04 05:51 30.70237 -12.20306 37088 ft 395 kts 222°
2026-05-04 05:52 30.65864 -12.24097 37091 ft 395 kts 222°
2026-05-04 05:52 30.61468 -12.27904 37089 ft 394 kts 222°
2026-05-04 05:54 30.43930 -12.43028 37092 ft 393 kts 222°
2026-05-04 05:55 30.39544 -12.46790 37088 ft 392 kts 222°
2026-05-04 05:55 30.35163 -12.50545 37088 ft 392 kts 222°
2026-05-04 05:56 30.30810 -12.54273 37093 ft 391 kts 222°
2026-05-04 05:56 30.26433 -12.58017 37095 ft 391 kts 222°
2026-05-04 05:57 30.22062 -12.61753 37090 ft 391 kts 223°
2026-05-04 05:57 30.17690 -12.65485 37099 ft 390 kts 223°
2026-05-04 05:58 30.13321 -12.69210 37097 ft 390 kts 223°
2026-05-04 05:58 30.08981 -12.72908 37095 ft 390 kts 223°
2026-05-04 05:59 30.04619 -12.76636 37094 ft 390 kts 223°
2026-05-04 05:59 30.00263 -12.80359 37093 ft 390 kts 223°
2026-05-04 06:00 29.95905 -12.84080 37093 ft 390 kts 223°
2026-05-04 06:00 29.91544 -12.87798 37093 ft 390 kts 223°
2026-05-04 06:01 29.87217 -12.91484 37096 ft 389 kts 223°
2026-05-04 06:03 29.69814 -13.06265 37094 ft 389 kts 223°
2026-05-04 06:05 29.50238 -13.22815 37093 ft 388 kts 223°
2026-05-04 06:06 29.45885 -13.26484 37089 ft 388 kts 223°
2026-05-04 06:06 29.41533 -13.30148 37095 ft 388 kts 223°
2026-05-04 06:07 29.37183 -13.33806 37090 ft 388 kts 223°
2026-05-04 06:07 29.32837 -13.37458 37093 ft 387 kts 223°
2026-05-04 06:08 29.28523 -13.41079 37092 ft 387 kts 223°
2026-05-04 06:08 29.24185 -13.44717 37089 ft 386 kts 223°
2026-05-04 06:09 29.19893 -13.48313 37090 ft 386 kts 223°
2026-05-04 06:11 29.03567 -13.63931 37065 ft 380 kts 227°
2026-05-04 06:13 28.88142 -13.79135 35597 ft 353 kts 227°
2026-05-04 06:14 28.77276 -13.89806 33304 ft 336 kts 226°
2026-05-04 06:14 28.75512 -13.91535 32930 ft 333 kts 226°
2026-05-04 06:15 28.73765 -13.93247 32572 ft 330 kts 226°
2026-05-04 06:15 28.72850 -13.94143 32384 ft 329 kts 226°
2026-05-04 06:15 28.71121 -13.95835 32030 ft 326 kts 226°
2026-05-04 06:15 28.69411 -13.97508 31684 ft 323 kts 226°
2026-05-04 06:16 28.67711 -13.99172 31340 ft 321 kts 226°
2026-05-04 06:16 28.66021 -14.00824 30996 ft 319 kts 226°
2026-05-04 06:16 28.64364 -14.02444 30662 ft 317 kts 226°
2026-05-04 06:16 28.62695 -14.04076 30321 ft 316 kts 226°
2026-05-04 06:17 28.61034 -14.05698 29960 ft 314 kts 226°
2026-05-04 06:17 28.59381 -14.07311 29574 ft 311 kts 226°
2026-05-04 06:17 28.57746 -14.08906 29212 ft 308 kts 226°
2026-05-04 06:17 28.56125 -14.10487 28859 ft 306 kts 226°
2026-05-04 06:18 28.54514 -14.12058 28513 ft 304 kts 226°
2026-05-04 06:18 28.52913 -14.13619 28170 ft 303 kts 226°
2026-05-04 06:18 28.51294 -14.15198 27835 ft 311 kts 226°
2026-05-04 06:20 28.39543 -14.26621 25176 ft 312 kts 225°
2026-05-04 06:20 28.37888 -14.28227 24494 ft 314 kts 225°
2026-05-04 06:21 28.31190 -14.34716 22743 ft 315 kts 225°
2026-05-04 06:21 28.29532 -14.36319 22394 ft 312 kts 225°
2026-05-04 06:22 28.27888 -14.37909 22041 ft 309 kts 225°
2026-05-04 06:22 28.26257 -14.39485 21716 ft 307 kts 225°
2026-05-04 06:25 28.06008 -14.59021 17503 ft 286 kts 225°
2026-05-04 06:25 28.04497 -14.60475 17182 ft 284 kts 225°
2026-05-04 06:26 28.02997 -14.61917 16872 ft 282 kts 225°
2026-05-04 06:26 28.01509 -14.63346 16562 ft 280 kts 225°
2026-05-04 06:26 28.00029 -14.64770 16256 ft 278 kts 226°
2026-05-04 06:26 27.98611 -14.66298 15677 ft 284 kts 230°
2026-05-04 06:27 27.93220 -14.72769 14337 ft 281 kts 231°
2026-05-04 06:28 27.91876 -14.74373 14028 ft 280 kts 230°
2026-05-04 06:28 27.90536 -14.75965 13701 ft 279 kts 230°
2026-05-04 06:28 27.89203 -14.77546 13380 ft 277 kts 230°
2026-05-04 06:28 27.87874 -14.79119 13048 ft 276 kts 230°
2026-05-04 06:29 27.86552 -14.80680 12738 ft 274 kts 230°
2026-05-04 06:29 27.85258 -14.82209 12438 ft 272 kts 230°
2026-05-04 06:29 27.83956 -14.83745 12144 ft 270 kts 230°
2026-05-04 06:29 27.82660 -14.85274 11846 ft 269 kts 230°
2026-05-04 06:30 27.81371 -14.86793 11543 ft 267 kts 230°
2026-05-04 06:30 27.80087 -14.88306 11249 ft 266 kts 230°
2026-05-04 06:30 27.78809 -14.89812 10961 ft 265 kts 229°
2026-05-04 06:30 27.77534 -14.91314 10661 ft 265 kts 229°
2026-05-04 06:31 27.76261 -14.92812 10376 ft 264 kts 229°
2026-05-04 06:31 27.75006 -14.94288 10232 ft 257 kts 229°
2026-05-04 06:31 27.73797 -14.95709 10107 ft 251 kts 229°
2026-05-04 06:31 27.72606 -14.97108 9987 ft 244 kts 229°
2026-05-04 06:32 27.71448 -14.98468 9877 ft 236 kts 229°
2026-05-04 06:33 27.65913 -15.09315 8177 ft 228 kts 245°
2026-05-04 06:34 27.65217 -15.10916 7935 ft 227 kts 245°
2026-05-04 06:34 27.64521 -15.12512 7690 ft 226 kts 245°
2026-05-04 06:34 27.63858 -15.14116 7439 ft 225 kts 255°
2026-05-04 06:34 27.63785 -15.15849 7198 ft 222 kts 281°
2026-05-04 06:35 27.64254 -15.17503 6961 ft 221 kts 290°
2026-05-04 06:36 27.68291 -15.28846 5133 ft 225 kts 292°
2026-05-04 06:37 27.68871 -15.30502 5053 ft 227 kts 292°
2026-05-04 06:37 27.69465 -15.32199 4666 ft 239 kts 292°
2026-05-04 06:37 27.70069 -15.33925 4496 ft 234 kts 293°
2026-05-04 06:37 27.70661 -15.35619 4336 ft 229 kts 293°
2026-05-04 06:38 27.71238 -15.37270 4095 ft 229 kts 294°
2026-05-04 06:38 27.71820 -15.38941 3871 ft 229 kts 294°
2026-05-04 06:40 27.79713 -15.44697 2455 ft 213 kts 22°
2026-05-04 06:40 27.81081 -15.44056 2230 ft 210 kts 22°
2026-05-04 06:40 27.82398 -15.43453 2069 ft 196 kts 22°
2026-05-04 06:40 27.83617 -15.42909 1838 ft 182 kts 21°
2026-05-04 06:41 27.84756 -15.42404 1625 ft 170 kts 21°
2026-05-04 06:41 27.85814 -15.41934 1447 ft 155 kts 22°
2026-05-04 06:41 27.86781 -15.41503 1181 ft 144 kts 21°
2026-05-04 06:41 27.87700 -15.41092 1001 ft 140 kts 22°
2026-05-04 06:42 27.88591 -15.40691 824 ft 136 kts 20°
2026-05-04 06:42 27.89465 -15.40304 652 ft 134 kts 19°
2026-05-04 06:42 27.90333 -15.39919 478 ft 141 kts 20°
2026-05-04 06:44 27.93962 -15.38445 69 ft 12 kts 349°
2026-05-04 06:44 27.94033 -15.38478 64 ft 11 kts 319°
2026-05-04 06:44 27.94062 -15.38548 70 ft 7 kts 290°
2026-05-04 06:45 27.94077 -15.38601 75 ft 7 kts 281°
2026-05-04 06:45 27.94046 -15.38636 81 ft 7 kts 200°
2026-05-04 06:45 27.94002 -15.38655 85 ft 7 kts 201°
2026-05-04 06:45 27.93958 -15.38675 83 ft 8 kts 202°
2026-05-04 06:46 27.93879 -15.38711 86 ft 18 kts 202°
2026-05-04 06:46 27.93743 -15.38773 83 ft 17 kts 201°
2026-05-04 06:46 27.93644 -15.38817 85 ft 13 kts 201°
2026-05-04 06:46 27.93585 -15.38849 83 ft 4 kts 221°
2026-05-04 06:48 27.93606 -15.38927 85 ft 0 kts 291°